Regional Weather Roundup
Issued by NWS Sterling, VA

Home | Current Version | Previous Version | Graphics & Text | Print | Product List | Glossary On
Versions: 1 2 3 4 5 6 7 8 9 10 11 12 13 14 15 16 17 18 19 20 21 22 23 24 25 26 27 28 29 30 31 32 33 34 35 36 37 38 39 40 41 42 43 44 45 46 47 48 49
000
ASUS41 KLWX 131210
RWRLWX

REGIONAL WEATHER ROUNDUP
NATIONAL WEATHER SERVICE BALTIMORE MD/WASHINGTON DC
800 AM EDT SUN JUL 13 2014

Note: "FAIR" indicates few or no clouds below 12,000 feet
with no significant weather and/or obstructions to visibility.
 TC=TEMPERATURE CELSIUS

 * =Non NWS site. Station does not report precipitation (e.g. rain,
    snow, etc.), thunder, or fog.

DCZ001-MDZ009-015-VAZ040>042-051-053>054-131300-
WASHINGTON METRO

CITY           SKY/WX    TMP DP  RH WIND       PRES   REMARKS
WASHINGTON NAT PTSUNNY   78  70  76 S13       30.07S
DULLES         PTSUNNY   75  68  78 S10       30.06S
ANDREWS AFB    SUNNY     72  72  98 S10       30.08R
FT BELVOIR     MOSUNNY   77  71  83 VRB6      30.08S
QUANTICO       MOSUNNY   76  70  82 SW9       30.08S
COLLEGE PARK*  MOSUNNY   77  72  83 S5        30.06F
LEESBURG*      MOSUNNY   75  72  88 S9        30.07S
MANASSAS*      SUNNY     73  68  83 S6        30.08
GAITHERSBURG*  SUNNY     75  68  78 S6        30.11S

$$

MDZ006>007-011-014-131300-
BALTIMORE METRO

CITY           SKY/WX    TMP DP  RH WIND       PRES   REMARKS
BWI AIRPORT    PTSUNNY   75  70  84 S6        30.06F
MD SCIENCE CTR   N/A     77  70  79 MISG      30.06F
MARTIN STATE   PTSUNNY   77  73  88 CALM      30.08S
ANNAPOLIS      PTSUNNY   76  70  82 S9        30.07S
FORT MEADE*    MOSUNNY   73  70  88 S5        30.09S

$$

MDZ012-015-019>023-131300-
MARYLAND EASTERN SHORE

CITY           SKY/WX    TMP DP  RH WIND       PRES   REMARKS
OCEAN CITY     PTSUNNY   76  71  85 SW9       30.13R
SALISBURY      MOSUNNY   75  71  87 S7        30.12S
BAY BRIDGE AP*   N/A     77  72  83 S8        30.07S
EASTON*        MOSUNNY   77  77 100 S9        30.12F

$$

MDZ017>025-131300-
SOUTHERN MARYLAND

CITY           SKY/WX    TMP DP  RH WIND       PRES   REMARKS
PATUXENT RIVER PTSUNNY   76  71  85 S8        30.08F
ST INIGOES     MOSUNNY   76  70  82 S7        30.09F
LEONARDTOWN*   SUNNY     73  68  83 S7        30.10F

$$

MDZ003>005-131300-
NORTH CENTRAL MARYLAND

CITY           SKY/WX    TMP DP  RH WIND       PRES   REMARKS
FREDERICK*     SUNNY     75  73  94 SW6       30.07F
HAGERSTOWN APT MOSUNNY   76  67  73 S9        30.05S
WESTMINSTER*   MOSUNNY   75  70  83 S6        30.07F

$$

MDZ501>502-131300-
WESTERN MARYLAND

CITY           SKY/WX    TMP DP  RH WIND       PRES   REMARKS
OAKLAND*       PTSUNNY   66  59  77 SW8       30.14F
CUMBERLAND*    PTSUNNY   70  64  83 CALM      30.10S

$$

VAZ025>031-131300-
SHENANDOAH VALLEY

CITY           SKY/WX    TMP DP  RH WIND       PRES   REMARKS
WINCHESTER*    MOSUNNY   77  66  69 SW6       30.06S
STAUNTON*      MOSUNNY   71  65  79 CALM      30.13S

$$

WVZ021-048>050-054>055-131300-
EASTERN WEST VIRGINIA PANHANDLE

CITY           SKY/WX    TMP DP  RH WIND       PRES   REMARKS
MARTINSBURG    MOSUNNY   75  66  73 S3        30.05S
PETERSBURG*    PTSUNNY   67  62  83 CALM      30.09S

$$

VAZ036>039-050-131300-
CENTRAL FOOTHILLS

CITY           SKY/WX    TMP DP  RH WIND       PRES   REMARKS
CHARLOTTESVILL CLOUDY    73  68  84 S7        30.09S
ORANGE*        PTSUNNY   72  68  88 S6        30.10S

$$

VAZ055>057-131300-
NORTH AND CENTRAL PIEDMONT

CITY           SKY/WX    TMP DP  RH WIND       PRES   REMARKS
FREDERICKSBRG* MOSUNNY   76  73  90 S7        30.07S
STAFFORD*      MOSUNNY   76  76 100 S3        30.12S

$$

NCZ024-NYZ072-PAZ021-071-VAZ022-071-131300-
OTHER REGIONAL OBSERVATIONS

CITY           SKY/WX    TMP DP  RH WIND       PRES   REMARKS
NEW YORK CITY  SUNNY     74  65  73 VRB6      30.11F
PHILADELPHIA   CLOUDY    74  67  78 S9        30.08F
PITTSBURGH     PTSUNNY   75  64  68 S7        29.99S
ROANOKE        PTSUNNY   71  65  81 CALM      30.16R
RICHMOND       PTSUNNY   78  71  79 S10       30.11S
RALEIGH        MOSUNNY   76  70  82 SW5       30.15S

$$

ANZ530>537-131300-
MARINE OBSERVATIONS

STATION/POSITION TIME  TEMP    WIND        PRES
                       AIR SEA DIR/SP/G
                 (UTC) (F)     (DEG/KT/KT) (MB)
THOMAS PT LIGHT  1200   76 78  200/ 17/ 19 1018.8R
BALT KEY BRIDGE  1200   79     190/  6/  7 1017.9R
COVE POINT       1200   75     200/ 12/ 13 1018.7R
LEWISETTA        1200   76 81  220/ 10/ 11 1018.9S
SOLOMONS ISLAND  1200      80                N/A
PINEY POINT      1200          210/ 10/ 12   N/A

$$



USA.gov is the U.S. government's official web portal to all federal, state and local government web resources and services.